Wind_Speed
8 8 8 8 7 7 7 7 7 7 7 7 6 6 6 6 5 6 6 6 6 6 6 6 6 5 5 5 5 4 4 4 4 3 3 3 3 2 2 1 1 1
9 9 8 8 7 7 7 7 7 6 6 6 6 6 6 6 5 5 5 5 4 4 5 5 4 4 4 3 3 3 3 3 3 3 2 2 2 1 1 1 2 2
9 9 8 8 7 7 7 7 6 6 6 6 6 6 5 5 6 5 5 4 4 3 3 3 3 3 3 3 3 2 2 2 2 2 2 2 3 3 3 3 3 4
9 9 9 8 8 8 7 7 6 6 5 5 5 5 4 4 4 5 5 4 3 3 3 3 3 3 3 3 2 2 2 2 2 2 3 3 3 4 4 5 5 5
9 9 9 8 8 7 7 6 6 5 5 5 4 4 4 4 3 3 3 3 3 3 3 3 3 3 3 2 2 3 2 2 2 2 3 3 3 4 4 5 5 5
10 10 10 9 9 8 7 7 6 5 5 5 4 4 4 4 3 3 2 3 3 3 3 3 3 3 2 2 2 2 3 3 3 3 3 3 4 5 5 6 7 7
12 12 11 10 10 9 8 8 7 7 6 6 5 4 4 3 3 3 3 3 4 4 4 4 4 3 3 3 3 4 5 5 4 4 5 5 5 5 6 6 7 7
14 13 12 12 11 10 10 9 8 8 7 7 6 5 4 4 4 5 5 5 5 5 6 5 5 5 5 5 5 6 7 6 6 6 6 7 6 6 7 7 7 8
16 15 14 14 13 12 12 11 10 9 8 7 7 6 6 5 5 6 7 7 7 7 7 7 7 7 7 7 7 7 8 8 8 8 8 8 9 9 9 9 9 10
17 16 16 15 15 14 13 12 11 10 9 9 8 8 8 8 8 8 8 8 7 7 7 7 8 8 8 8 9 9 9 9 10 10 10 11 11 11 11 11 11 12
19 19 18 17 17 16 15 14 13 12 12 12 11 10 10 10 10 10 9 9 9 9 9 9 9 10 10 10 11 11 11 12 12 12 12 13 13 13 14 14 14 14
20 20 20 19 19 18 17 16 15 14 14 14 13 12 12 12 12 12 11 11 11 11 11 11 11 12 12 13 13 13 13 13 14 14 14 14 14 15 15 15 16 16
21 21 21 20 20 19 18 17 16 15 15 15 15 14 14 13 14 13 13 13 13 12 13 13 13 14 15 15 15 15 15 15 15 15 15 15 15 15 16 16 16 17
23 22 21 20 19 18 17 17 17 17 17 17 17 16 15 14 15 14 14 15 14 14 15 14 14 16 17 16 15 16 16 16 17 16 16 16 16 16 17 17 17 17
24 22 21 20 19 19 18 18 18 18 19 19 18 18 16 15 16 15 15 16 16 17 17 15 15 16 17 17 16 16 17 17 17 18 18 18 18 18 18 18 19 19
24 23 22 21 20 20 19 20 21 20 20 19 19 19 17 16 17 17 17 18 17 18 18 18 18 18 17 17 18 18 19 19 19 19 20 20 20 20 20 20 21 21
25 23 23 22 21 21 21 22 22 20 19 19 19 20 19 17 18 18 18 19 18 18 19 20 20 21 20 19 19 20 21 22 21 22 22 21 21 21 22 23 24 23
26 24 23 22 22 22 22 22 21 20 20 20 21 22 21 20 20 20 20 20 20 20 20 21 22 23 23 22 21 22 23 24 24 24 24 23 22 23 24 25 25 25
27 26 24 23 22 22 22 22 22 23 23 24 24 23 21 21 22 22 23 22 22 22 22 23 24 25 25 25 24 25 26 25 25 25 25 24 24 25 26 27 26 26
29 28 25 23 22 22 23 24 24 25 26 26 25 23 20 21 23 24 25 25 25 25 25 26 26 27 27 27 27 29 29 27 25 25 26 26 27 28 29 29 28 27
31 33 31 28 25 24 24 25 26 26 27 26 25 24 23 23 24 25 26 26 27 28 28 27 28 29 29 29 29 30 30 29 28 27 28 28 28 29 30 30 30 30
33 36 35 31 28 26 25 25 26 26 27 26 26 26 26 26 25 24 25 26 28 29 28 28 28 29 30 30 29 30 31 30 30 31 31 31 30 30 30 31 31 32
35 36 35 32 29 28 27 27 27 28 27 27 27 28 28 28 27 24 23 25 27 28 27 27 28 30 31 31 31 31 32 32 33 34 34 34 34 33 32 32 32 33
36 35 35 33 30 30 29 28 29 29 28 28 28 29 28 28 27 25 25 27 29 29 29 29 31 32 33 34 34 34 35 35 36 36 37 37 36 36 35 35 35 35
37 34 33 32 30 29 29 29 30 30 30 29 30 30 29 29 29 28 28 31 32 32 32 32 33 34 36 37 38 39 40 40 40 40 41 40 39 39 39 38 37 37
32 32 33 32 30 28 29 31 31 32 32 32 32 32 31 30 29 30 32 33 33 34 35 35 36 37 38 38 38 38 37 38 40 41 42 42 40 40 41 40 40 39
Wind_Direction
181 179 176 171 164 158 154 151 149 144 138 133 130 131 132 132 131 129 125 124 126 128 130 129 129 133 137 142 150 154 158 165 174 182 191 199 202 202 203 207 225 240
188 187 186 181 175 169 167 166 160 157 154 145 142 148 148 147 144 139 131 128 129 131 131 132 135 139 143 149 156 164 170 171 180 198 209 222 237 247 270 282 286 284
193 193 191 186 184 181 179 176 171 172 168 157 157 163 159 157 154 149 144 143 147 150 146 148 153 155 162 173 177 187 210 226 231 242 257 279 294 305 312 313 312 307
194 196 195 192 193 190 186 183 179 179 175 169 171 168 158 160 156 148 147 150 155 161 162 168 175 181 188 193 199 214 239 266 283 292 298 306 313 318 320 319 315 310
197 198 199 199 201 198 192 188 186 183 179 178 179 172 168 170 165 155 152 155 163 169 175 188 195 197 202 207 217 231 241 259 279 293 308 315 311 305 304 303 300 301
203 204 204 204 208 206 202 198 197 198 195 192 192 188 185 182 182 186 180 179 193 203 203 209 220 223 229 241 253 263 268 264 264 272 281 288 291 291 298 302 301 305
209 210 210 210 212 213 212 208 205 206 207 206 205 205 204 199 202 210 215 218 224 232 232 232 239 247 258 272 283 287 283 280 280 280 275 271 276 287 296 300 300 303
213 214 214 214 216 217 219 218 215 213 213 211 208 208 210 210 215 220 224 231 238 243 246 247 252 257 264 273 281 283 282 282 282 278 276 278 282 285 286 288 291 295
217 218 219 220 220 221 223 224 224 223 222 222 218 216 217 216 222 229 230 233 240 247 255 260 262 265 269 273 277 279 280 283 283 280 279 281 281 278 278 283 288 290
219 221 223 225 226 227 227 229 232 231 232 234 232 229 230 228 230 236 239 243 250 257 262 267 269 270 273 273 274 275 277 279 280 281 282 282 281 280 280 283 287 289
219 221 223 226 229 230 231 232 235 237 238 239 239 237 237 238 241 244 246 250 256 261 264 269 272 273 273 273 273 273 274 276 277 278 280 281 284 286 286 287 289 292
221 222 224 227 229 231 233 234 236 238 240 241 242 242 241 243 247 249 252 252 254 259 264 265 268 270 271 270 271 270 269 270 272 273 275 278 281 284 286 288 290 293
222 224 226 228 231 233 233 235 236 238 240 243 244 242 242 245 249 251 254 255 255 257 260 261 262 264 264 264 266 268 268 267 266 267 269 271 274 278 281 284 286 288
224 225 228 230 232 234 234 235 236 236 237 239 241 240 239 244 251 254 258 259 256 252 254 259 260 259 262 265 267 269 269 268 267 266 266 266 268 271 275 278 280 282
226 227 230 232 233 234 234 234 234 235 236 237 241 242 239 240 245 249 253 256 254 249 250 255 258 259 265 269 267 267 268 269 269 269 268 269 269 271 275 278 280 280
229 231 232 233 235 235 235 237 237 237 239 241 245 247 244 242 244 245 248 253 254 250 247 250 256 259 263 265 265 267 267 268 268 269 270 271 273 276 279 280 280 281
231 232 232 232 233 235 237 240 242 241 241 244 247 250 249 247 246 247 250 254 256 255 254 256 261 263 262 263 266 269 268 267 267 267 268 270 274 278 279 278 278 279
231 229 231 231 231 234 238 241 243 242 242 244 247 250 251 251 252 253 253 253 254 257 259 262 266 267 265 265 266 267 267 267 268 268 269 270 273 274 275 276 277 278
232 230 231 234 233 236 241 243 244 246 246 245 246 248 252 256 258 258 257 256 257 258 259 261 263 264 265 266 266 265 267 269 270 270 271 271 270 270 270 273 276 279
233 234 237 240 239 239 243 244 246 248 250 250 251 253 256 258 260 261 261 261 261 261 261 262 262 263 264 264 265 265 267 272 275 276 276 274 271 270 270 271 273 275
232 231 234 238 238 238 242 246 249 253 256 258 261 263 262 259 260 263 265 266 266 265 264 263 263 264 264 264 266 268 269 272 275 277 278 277 275 274 274 274 274 273
232 229 231 237 238 238 241 246 250 255 258 260 263 265 265 263 261 263 266 268 268 267 267 266 266 266 267 267 269 271 272 272 273 275 277 277 277 277 275 275 274 273
231 227 229 235 239 240 242 245 248 253 255 257 260 262 264 267 266 263 264 266 266 265 264 265 265 266 267 269 272 274 274 273 274 275 277 278 277 277 276 275 273 271
229 228 230 236 240 241 245 249 250 253 255 256 258 260 262 266 265 263 263 264 264 264 263 263 265 266 268 271 274 274 274 275 276 277 277 277 277 278 279 278 274 272
230 234 233 237 241 243 247 251 252 255 256 255 257 260 261 262 263 262 263 263 264 265 266 267 268 269 272 275 276 277 278 278 277 275 274 275 277 279 280 278 274 272
235 237 233 236 242 245 247 249 251 255 256 254 256 260 263 265 266 266 265 264 264 265 266 268 270 272 276 278 278 278 278 275 273 273 273 275 278 280 280 277 273 271
Height
5929 5929 5930 5931 5933 5934 5935 5936 5937 5937 5938 5939 5939 5940 5941 5941 5942 5942 5943 5943 5944 5944 5944 5945 5945 5945 5945 5945 5945 5945 5946 5946 5946 5946 5946 5946 5946 5945 5945 5945 5945 5945
5929 5930 5930 5931 5933 5934 5935 5936 5937 5937 5938 5939 5939 5940 5941 5942 5942 5942 5943 5943 5944 5944 5944 5944 5945 5945 5945 5945 5945 5946 5946 5946 5946 5946 5946 5946 5946 5945 5945 5945 5945 5944
5929 5929 5930 5931 5932 5933 5934 5935 5936 5937 5938 5939 5939 5940 5941 5941 5942 5942 5943 5943 5943 5944 5944 5944 5944 5945 5945 5945 5946 5946 5946 5946 5946 5946 5946 5946 5945 5945 5945 5945 5944 5944
5928 5929 5930 5931 5932 5933 5934 5935 5936 5937 5938 5939 5939 5940 5940 5941 5942 5942 5942 5943 5943 5943 5944 5944 5944 5944 5945 5945 5945 5946 5946 5946 5946 5946 5946 5945 5945 5944 5944 5944 5944 5944
5928 5929 5930 5931 5932 5933 5934 5935 5936 5936 5937 5938 5939 5939 5940 5940 5941 5941 5942 5942 5942 5943 5943 5943 5944 5944 5944 5944 5945 5945 5946 5946 5945 5945 5945 5944 5944 5944 5944 5943 5943 5943
5927 5928 5929 5930 5931 5932 5933 5934 5935 5936 5937 5937 5938 5939 5939 5940 5940 5941 5941 5941 5941 5942 5942 5943 5943 5943 5944 5944 5945 5945 5945 5945 5944 5944 5944 5944 5943 5943 5943 5943 5943 5942
5926 5927 5928 5929 5930 5931 5932 5933 5934 5935 5935 5936 5937 5938 5938 5939 5939 5940 5940 5940 5941 5941 5941 5942 5942 5943 5943 5943 5944 5944 5944 5943 5943 5943 5943 5943 5943 5942 5942 5942 5942 5942
5925 5926 5927 5928 5929 5930 5931 5932 5932 5933 5934 5935 5936 5937 5937 5938 5938 5939 5939 5939 5940 5940 5940 5941 5941 5942 5942 5942 5943 5943 5942 5942 5942 5942 5942 5942 5942 5942 5941 5941 5941 5941
5923 5925 5926 5927 5928 5929 5930 5931 5931 5932 5933 5934 5935 5935 5936 5937 5937 5937 5938 5938 5939 5939 5939 5940 5940 5941 5941 5941 5942 5941 5941 5941 5941 5941 5941 5941 5941 5941 5940 5939 5940 5940
5922 5923 5925 5926 5927 5928 5929 5930 5931 5931 5932 5932 5933 5934 5935 5935 5936 5936 5937 5937 5938 5938 5938 5939 5939 5940 5940 5940 5940 5940 5940 5940 5940 5940 5940 5940 5939 5939 5939 5938 5938 5938
5921 5922 5923 5924 5926 5927 5928 5929 5929 5930 5931 5931 5932 5933 5933 5934 5934 5935 5935 5936 5936 5937 5937 5938 5938 5938 5938 5938 5938 5939 5939 5938 5938 5938 5938 5938 5938 5938 5937 5937 5937 5937
5919 5920 5922 5923 5924 5925 5926 5927 5928 5928 5929 5930 5931 5931 5932 5932 5933 5933 5934 5934 5935 5935 5936 5936 5936 5936 5936 5936 5936 5937 5937 5937 5936 5936 5936 5936 5936 5936 5936 5936 5936 5936
5917 5918 5920 5921 5922 5923 5924 5925 5926 5927 5927 5928 5929 5929 5930 5931 5931 5931 5932 5933 5933 5933 5933 5933 5934 5934 5934 5934 5934 5934 5934 5935 5934 5934 5935 5934 5934 5934 5934 5934 5934 5934
5915 5916 5918 5919 5920 5921 5922 5923 5924 5924 5925 5925 5926 5927 5928 5929 5930 5930 5931 5931 5931 5931 5931 5932 5932 5931 5931 5932 5932 5932 5932 5932 5932 5933 5933 5932 5932 5932 5932 5932 5932 5932
5912 5914 5916 5917 5918 5919 5919 5920 5921 5921 5922 5922 5923 5924 5926 5927 5928 5928 5928 5929 5930 5930 5930 5930 5929 5928 5929 5930 5930 5930 5930 5930 5930 5930 5930 5930 5930 5930 5930 5930 5930 5929
5911 5912 5914 5915 5916 5916 5917 5917 5918 5919 5920 5920 5921 5921 5923 5925 5925 5925 5925 5926 5926 5926 5927 5927 5927 5926 5927 5928 5928 5928 5928 5927 5927 5927 5927 5927 5928 5928 5928 5928 5927 5927
5909 5910 5911 5913 5914 5914 5915 5915 5916 5917 5918 5918 5919 5919 5921 5923 5922 5922 5923 5923 5923 5923 5924 5925 5925 5925 5925 5925 5925 5925 5925 5925 5925 5925 5925 5925 5926 5926 5925 5925 5924 5924
5905 5907 5908 5910 5911 5912 5912 5913 5914 5915 5915 5916 5916 5917 5919 5920 5920 5919 5920 5920 5920 5920 5920 5921 5921 5921 5921 5921 5921 5922 5921 5922 5922 5922 5922 5923 5924 5923 5922 5921 5921 5922
5904 5905 5906 5906 5908 5909 5910 5910 5911 5911 5911 5912 5912 5914 5916 5917 5917 5917 5917 5918 5918 5918 5918 5918 5917 5917 5917 5917 5917 5918 5918 5918 5918 5919 5919 5920 5921 5920 5919 5918 5918 5919
5904 5906 5906 5905 5905 5906 5906 5906 5907 5907 5907 5908 5909 5911 5914 5914 5914 5914 5915 5915 5916 5915 5915 5915 5915 5914 5914 5914 5914 5914 5915 5915 5915 5916 5916 5916 5917 5916 5915 5915 5915 5915
5899 5902 5902 5902 5901 5902 5902 5903 5904 5904 5905 5905 5907 5908 5910 5910 5910 5911 5912 5912 5912 5911 5912 5912 5912 5911 5911 5911 5911 5911 5911 5911 5912 5912 5911 5911 5912 5912 5912 5912 5912 5912
5893 5895 5896 5897 5898 5898 5898 5900 5901 5901 5902 5902 5903 5904 5904 5905 5906 5907 5909 5910 5908 5907 5907 5908 5908 5908 5908 5908 5908 5908 5908 5908 5908 5908 5907 5907 5907 5908 5908 5908 5908 5907
5886 5889 5892 5893 5894 5895 5895 5896 5897 5898 5898 5899 5899 5900 5900 5901 5902 5904 5905 5906 5905 5904 5904 5904 5904 5904 5904 5904 5904 5904 5904 5903 5903 5903 5903 5903 5903 5903 5904 5904 5904 5903
5881 5884 5887 5889 5890 5891 5891 5893 5894 5895 5896 5897 5896 5896 5897 5898 5898 5899 5900 5900 5901 5901 5900 5900 5900 5900 5901 5901 5901 5901 5900 5899 5899 5899 5899 5899 5899 5899 5900 5900 5899 5898
5877 5879 5881 5884 5886 5887 5888 5889 5891 5892 5893 5894 5893 5893 5894 5894 5895 5896 5896 5895 5896 5897 5896 5896 5896 5896 5896 5897 5897 5897 5896 5895 5895 5894 5894 5894 5894 5895 5895 5895 5894 5893
5874 5874 5877 5880 5882 5883 5884 5886 5887 5888 5889 5889 5889 5889 5890 5891 5892 5893 5892 5891 5891 5892 5892 5892 5892 5892 5892 5893 5893 5892 5890 5889 5888 5888 5888 5889 5889 5890 5890 5890 5889 5888